Regional Weather Roundup
Issued by NWS

Home | Current Version | Previous Version | Text Only | Print | Product List | Glossary On
Versions: 1 2 3 4 5 6 7 8 9 10 11 12 13 14 15 16 17 18 19 20 21 22 23 24 25 26 27 28 29 30 31 32 33 34 35 36 37 38 39 40 41 42 43 44 45 46 47 48 49 50
000
ASUS45 KPSR 240700
RWRAZ

PRELIMINARY ARIZONA REGIONAL HOURLY WEATHER ROUNDUP
NATIONAL WEATHER SERVICE PHOENIX AZ
1200 AM MST MON NOV 24 2014

NOTE: FAIR INDICATES FEW OR NO CLOUDS BELOW 12,000 FEET WITH NO
SIGNIFICANT WEATHER AND/OR OBSTRUCTIONS TO VISIBILITY.

AZZ001>003-036-240800-
NORTHWEST ARIZONA

CITY           SKY/WX    TMP DP  RH WIND       PRES   REMARKS
BULLHEAD CITY  CLEAR     52  10  19 CALM      30.25R
KINGMAN        CLEAR     34   7  32 CALM      30.27R
$$

AZZ004>008-015-016-018-240800-
NORTH CENTRAL ARIZONA

CITY           SKY/WX    TMP DP  RH WIND       PRES   REMARKS
GRAND CANYON   PTCLDY    14  -6  40 CALM      30.23S
PRESCOTT       PTCLDY    30  -2  25 SW5       30.23S WCI  25
FLAGSTAFF      NOT AVBL
$$

AZZ009>014-017-240800-
NORTHEAST ARIZONA

CITY           SKY/WX    TMP DP  RH WIND       PRES   REMARKS
WINSLOW        NOT AVBL
SAINT JOHNS    PTCLDY    21   1  41 CALM      30.18R
$$

AZZ023-240800-
GREATER PHOENIX AREA

CITY           SKY/WX    TMP DP  RH WIND       PRES   REMARKS
PHOENIX        PTCLDY    54  12  18 SW3       30.13S
BUCKEYE          N/A     48   1  14 NE7       30.16R
LUKE AFB       CLEAR     50  12  22 NE6       30.14R HAZE
DEER VALLEY    CLEAR     48   0  13 SW6       30.14R
SCOTTSDALE     CLEAR     51   3  14 W5        30.14F
MESA-GATEWAY   CLEAR     50   0  12 VRB3      30.15R
$$

AZZ027-028-240800-
SOUTHWEST MARICOPA COUNTY AND PINAL COUNTY

CITY           SKY/WX    TMP DP  RH WIND       PRES   REMARKS
CASA GRANDE    CLEAR     43   7  22 CALM      30.16R
$$

AZZ503-504-507>509-240800-
SOUTHEAST ARIZONA

CITY           SKY/WX    TMP DP  RH WIND       PRES   REMARKS
TUCSON         CLEAR     42  20  41 S5        30.18R
DAVIS-MONTHAN  CLEAR     53  -7   8 E10       30.14R
NOGALES        CLEAR     45   4  18 NE9       30.14S
SIERRA VISTA   CLEAR     43  -2  15 CALM      30.17R
SAFFORD        CLEAR     39   1  20 NW10      30.15R WCI  32
$$

AZZ020-021-025-026-031-240800-
SOUTHWEST ARIZONA

CITY           SKY/WX    TMP DP  RH WIND       PRES   REMARKS
YUMA           NOT AVBL
$$

CAZ031-033-041-043-047-048-061-240800-
SOUTHERN CALIFORNIA

CITY           SKY/WX    TMP DP  RH WIND       PRES   REMARKS
DOWNTOWN L.A.  PTCLDY    62  16  16 CALM      30.15R
L.A. AIRPORT   PTCLDY    63  16  16 CALM      30.15S
SAN DIEGO      PTCLDY    60  51  72 CALM      30.15S
BURBANK        PTCLDY    55  13  18 CALM      30.16R
ONTARIO        MOCLDY    55  19  24 N3        30.17R
RIVERSIDE      MOCLDY    56  17  21 NE7       30.18R
PALM SPRINGS   MOCLDY    61  13  15 W7        30.21S
EL CENTRO NAS  MOCLDY    51  22  31 W7        30.18S
IMPERIAL       MOCLDY    49  28  44 SW3       30.18R
BLYTHE         CLEAR     58   5  12 N10       30.20R
$$

NVZ020-UTZ003-240800-
SOUTHERN NEVADA-UTAH

CITY           SKY/WX    TMP DP  RH WIND       PRES   REMARKS
LAS VEGAS      NOT AVBL
SALT LAKE CITY CLOUDY    36  23  59 SE7       30.22F WCI  30
$$

NMZ009-TXZ055-240800-
NEW MEXICO-WEST TEXAS

CITY           SKY/WX    TMP DP  RH WIND       PRES   REMARKS
ALBUQUERQUE    CLEAR     34  11  38 NW14      30.09R WCI  25
EL PASO        PTCLDY    48  -2  12 NW15      30.06S
$$


........................KEY........................
SKY/WX - SKY CONDITION/WEATHER
TMP    - TEMPERATURE IN FAHRENHEIT
DP     - DEW POINT IN FAHRENHEIT
RH     - RELATIVE HUMIDITY IN PERCENT
WIND   - DIRECTION AND SPEED IN MILES PER HOUR (MPH)
VRB    - VARIABLE WIND DIRECTION
PRES   - MEAN SEA LEVEL PRESSURE IN INCHES OF MERCURY
         F - FALLING PRESSURE   R - RISING PRESSURE
         S - STEADY PRESSURE
VSB    - VISIBILITY IN MILES
HX     - HEAT INDEX IN FAHRENHEIT
WCI    - WIND CHILL INDEX IN FAHRENHEIT
TC     - TEMPERATURE IN CELSIUS WHICH IS ALSO KNOWN AS
         TEMPERATURE IN CENTIGRADE
AFB    - AIR FORCE BASE
         LUKE AFB IS LUKE AIR FORCE BASE
         DAVIS-MONTHAN IS DAVIS-MONTHAN AIR FORCE BASE
NAS    - NAVAL AIR STATION
         EL CENTRO NAS IS EL CENTRO NAVAL AIR STATION
N/A    - NOT AVAILABLE


USA.gov is the U.S. government's official web portal to all federal, state and local government web resources and services.